Temp
58 58 58 58 58 58 58 58 58 58 58 59 59 59 58 58 57 55 56 57 57 57 60 60 63 61 61 61 60 60 61 60 62 58 59 60 57 61 58 63 61 60 58 58 57 55 53 73 70 66 73 74 75 75
57 58 58 58 57 58 58 58 58 58 58 58 59 58 58 58 58 55 54 57 56 55 59 57 63 65 66 67 64 61 59 57 63 60 59 60 58 57 57 56 60 57 65 63 63 64 69 72 74 74 74 72 73 73
57 57 57 58 57 57 58 57 58 58 58 58 58 59 57 57 58 57 54 54 54 51 56 56 61 64 64 65 71 59 61 64 63 64 63 61 55 61 56 58 60 62 63 63 60 70 68 71 74 73 74 73 73 73
56 57 57 57 57 57 58 57 58 57 57 58 58 58 58 57 57 57 54 55 52 49 49 61 65 63 66 66 66 68 67 64 65 63 61 60 57 63 61 62 60 64 61 61 62 67 68 70 71 73 73 74 72 72
55 56 56 56 56 57 57 57 57 57 58 58 58 58 58 57 55 56 56 58 57 53 51 54 61 64 64 65 64 65 64 63 60 59 58 57 63 60 63 61 61 65 64 61 62 70 66 69 72 72 71 73 72 70
55 55 55 56 56 57 57 57 57 57 57 57 58 57 57 56 55 55 54 56 57 57 51 50 61 60 64 64 64 63 63 60 60 58 59 62 66 63 59 57 67 69 67 69 67 73 71 70 71 73 71 73 73 72
55 55 55 55 56 56 56 57 57 57 57 57 57 57 57 55 55 56 55 57 54 58 53 50 55 64 63 64 66 64 62 61 61 60 57 61 63 60 60 55 66 68 68 68 71 69 66 71 70 75 74 75 71 73
55 55 55 55 56 56 56 56 56 57 57 57 56 55 54 54 54 57 60 54 55 54 54 48 54 60 64 65 63 62 61 59 59 60 60 59 62 60 55 61 64 68 70 70 70 72 70 71 69 69 74 73 71 70
54 55 55 55 55 55 56 56 56 56 56 55 55 55 56 56 56 58 59 56 57 54 49 51 51 56 63 63 61 58 57 54 60 56 56 57 57 50 53 53 57 60 62 66 70 70 70 68 67 68 71 71 70 70
54 55 55 54 55 55 55 55 56 56 55 55 55 56 54 53 58 59 55 52 51 52 53 48 55 54 59 57 59 55 55 53 50 57 59 53 49 53 54 54 57 58 60 63 64 67 67 68 68 69 70 71 71 70
54 54 54 54 54 55 55 55 55 55 55 57 55 54 56 55 57 54 49 47 48 46 50 52 53 55 59 54 54 56 52 50 48 54 50 45 44 49 53 54 57 60 62 64 66 66 67 67 67 68 70 70 70 69
54 54 54 54 54 54 55 55 55 55 55 54 52 52 53 54 51 47 47 49 47 48 54 53 57 52 58 57 54 55 50 49 47 56 49 43 48 50 53 54 56 61 63 65 66 66 66 68 69 68 68 68 67 66
53 54 54 54 54 54 55 55 55 54 53 54 50 49 51 50 39 41 44 47 47 54 56 55 55 55 55 54 54 51 48 50 57 48 44 45 51 54 53 54 55 59 61 63 65 66 66 64 68 67 64 67 68 66
53 53 54 54 54 54 54 55 55 53 53 51 49 37 46 46 47 52 55 58 61 58 59 56 56 55 56 52 56 50 55 54 49 48 45 50 54 56 56 56 55 55 58 60 62 64 65 66 67 67 67 68 67 66
53 53 54 54 54 54 54 54 54 53 50 49 49 41 47 55 57 58 60 59 63 63 60 55 55 55 53 51 50 51 48 47 48 48 50 52 55 55 55 55 55 54 56 58 61 63 64 65 65 65 66 66 66 65
53 53 55 54 54 55 54 52 52 52 51 48 48 48 54 52 57 58 59 60 62 57 54 58 53 51 51 51 49 49 47 46 46 50 53 53 54 55 55 56 57 57 57 59 60 62 64 64 63 64 66 66 66 65
53 52 54 54 55 53 53 52 51 50 50 50 49 54 53 54 54 58 58 59 61 59 59 53 49 49 53 49 48 50 47 49 53 52 53 55 52 52 55 55 57 57 57 60 61 62 63 64 64 65 63 64 64 65
52 55 54 54 54 53 52 51 50 49 47 52 48 54 54 57 58 59 58 59 58 55 57 55 56 50 49 47 50 52 54 54 54 52 52 54 55 56 56 53 55 56 56 57 59 61 61 62 61 62 61 60 62 63
52 53 53 53 53 51 48 48 49 46 51 54 53 55 56 58 60 61 61 58 60 62 59 56 51 50 51 53 55 54 51 51 50 51 52 54 54 54 57 56 59 58 56 55 55 56 58 60 62 61 59 58 61 62
52 53 53 54 53 49 47 49 52 48 49 55 55 54 57 59 60 58 57 58 59 55 55 53 53 55 56 58 57 53 51 53 51 50 52 55 59 58 54 55 55 57 56 56 55 51 57 59 65 64 61 60 60 61
53 54 53 53 51 51 49 50 49 52 55 53 57 57 57 58 56 55 56 58 59 58 56 55 55 59 59 59 59 58 56 56 55 54 53 53 55 53 52 54 55 55 55 55 54 56 54 59 60 65 61 61 61 65
53 54 52 52 50 49 47 49 48 52 50 54 54 57 57 55 54 55 55 56 58 61 60 56 56 59 58 57 59 59 59 58 58 56 51 53 52 51 52 53 53 53 54 55 56 57 57 62 64 63 60 60 57 62
53 53 51 50 48 45 44 53 48 51 48 53 55 53 55 55 55 56 54 56 60 61 60 60 59 59 58 59 58 59 59 57 57 57 57 55 54 53 53 53 54 55 54 57 57 57 58 51 57 61 62 62 63 60
52 50 48 48 47 43 52 47 51 51 52 51 52 53 55 52 53 54 54 55 58 59 58 57 59 57 56 56 57 59 60 58 58 59 59 58 57 53 53 53 54 57 58 57 57 57 57 59 54 60 60 59 60 60
44 44 45 38 49 46 46 47 50 50 48 54 53 55 53 54 53 52 53 57 55 58 60 59 59 62 62 63 63 63 63 61 58 56 61 59 59 57 54 54 55 56 59 58 57 59 60 61 59 60 63 60 59 60
39 47 41 48 48 47 48 48 49 51 54 54 54 57 58 54 52 53 56 60 57 59 60 60 61 59 59 61 60 64 66 63 62 62 63 63 62 60 59 54 53 54 57 57 57 58 58 60 61 60 58 56 49 59
40 45 48 51 50 49 50 49 53 53 53 54 56 55 54 51 54 60 64 61 60 62 65 65 65 64 66 66 64 65 66 66 64 65 65 63 64 65 64 62 61 59 58 59 60 59 59 59 58 58 59 57 57 57
47 48 45 48 48 50 49 50 50 52 56 59 56 52 54 53 58 65 66 66 65 64 66 66 67 68 68 69 69 68 68 68 68 68 70 69 66 67 65 65 63 47 61 62 60 62 61 59 58 59 59 59 60 59
47 51 50 46 48 50 52 53 56 60 59 54 54 57 59 61 66 64 64 63 65 65 62 60 61 62 66 64 67 68 69 70 70 66 66 66 67 67 67 66 66 65 65 62 44 54 61 61 63 64 62 60 62 62
49 54 50 50 50 50 57 60 60 63 60 60 59 59 60 62 62 61 61 61 60 64 66 69 67 65 64 66 67 68 70 71 72 73 69 68 68 69 68 67 67 67 67 67 66 64 50 62 59 65 65 64 66 66
55 52 51 52 52 57 61 64 63 62 61 60 59 59 61 61 63 65 64 64 63 63 66 64 66 65 67 67 67 68 69 69 69 70 72 73 73 71 69 68 68 69 68 68 68 68 67 66 66 65 65 64 62 58
52 50 49 48 52 60 60 57 60 58 60 58 59 58 59 59 59 65 65 62 60 64 61 64 67 68 70 73 73 74 53 75 71 71 68 70 71 71 71 71 71 71 70 69 69 68 67 66 66 65 64 64 64 64
49 53 55 54 55 56 57 57 56 57 57 56 57 58 60 61 60 66 65 66 68 71 69 69 69 71 71 71 72 73 59 74 65 51 51 53 54 60 70 72 72 72 71 70 70 69 68 66 66 65 65 64 64 64
MSLP
1020.93 1020.79 1020.72 1020.66 1020.52 1020.38 1020.18 1019.98 1019.72 1019.48 1019.22 1018.92 1018.63 1018.37 1018.06 1017.80 1017.48 1017.24 1017.24 1017.19 1016.62 1015.68 1014.25 1013.82 1013.33 1012.93 1012.90 1012.71 1012.36 1012.68 1012.40 1011.96 1011.40 1010.69 1009.94 1009.04 1008.69 1008.14 1007.85 1007.11 1007.00 1006.92 1007.07 1006.94 1006.96 1006.10 1004.88 1004.33 1004.80 1004.54 1004.10 1004.39 1004.61 1004.74
1020.60 1020.48 1020.35 1020.30 1020.27 1020.16 1020.01 1019.88 1019.65 1019.41 1019.16 1018.90 1018.64 1018.40 1018.22 1017.98 1017.73 1017.56 1017.33 1017.45 1017.43 1016.64 1014.95 1014.53 1013.69 1013.25 1012.88 1012.68 1012.86 1013.04 1012.69 1012.33 1011.71 1011.19 1010.67 1010.04 1009.15 1008.73 1008.05 1007.12 1007.32 1006.95 1006.32 1006.04 1006.12 1004.95 1004.55 1004.50 1004.18 1004.46 1004.62 1004.84 1004.86 1005.00
1020.21 1020.10 1020.01 1019.92 1019.89 1019.83 1019.73 1019.63 1019.46 1019.23 1018.99 1018.75 1018.49 1018.28 1018.14 1018.03 1017.83 1017.68 1017.55 1017.57 1017.37 1016.63 1014.95 1014.06 1012.97 1012.77 1012.92 1012.92 1012.92 1012.86 1012.63 1012.20 1012.08 1012.10 1011.34 1010.62 1009.74 1008.95 1007.94 1007.22 1006.96 1006.73 1006.70 1006.30 1006.05 1004.50 1004.58 1004.60 1004.59 1004.72 1004.79 1004.82 1004.77 1004.93
1019.98 1019.73 1019.59 1019.52 1019.48 1019.45 1019.36 1019.29 1019.17 1018.97 1018.72 1018.47 1018.23 1018.04 1017.86 1017.82 1017.76 1017.62 1017.58 1017.60 1017.58 1017.08 1015.70 1013.19 1012.67 1012.47 1012.39 1012.46 1012.47 1012.27 1012.17 1012.53 1012.52 1012.44 1011.59 1010.59 1009.69 1009.03 1007.79 1007.21 1007.02 1006.92 1006.88 1006.12 1005.46 1004.86 1004.71 1004.45 1004.68 1004.65 1004.60 1004.60 1004.68 1004.81
1019.72 1019.47 1019.29 1019.14 1019.07 1019.03 1018.95 1018.87 1018.82 1018.67 1018.39 1018.18 1017.99 1017.82 1017.68 1017.65 1017.55 1017.40 1017.38 1017.26 1017.35 1017.22 1015.89 1013.68 1012.56 1012.05 1012.03 1012.04 1012.08 1012.23 1012.27 1012.40 1012.37 1012.03 1011.32 1010.23 1009.44 1009.16 1008.06 1007.62 1006.35 1006.72 1006.20 1005.82 1004.76 1004.67 1004.86 1004.59 1004.54 1004.67 1004.48 1004.18 1004.26 1004.45
1019.55 1019.32 1019.04 1018.84 1018.71 1018.63 1018.53 1018.46 1018.41 1018.28 1018.07 1017.84 1017.63 1017.49 1017.40 1017.38 1017.37 1017.33 1017.11 1017.28 1017.34 1017.21 1016.27 1014.43 1012.77 1011.85 1011.60 1011.64 1011.61 1011.57 1011.74 1012.16 1012.12 1011.50 1010.53 1009.48 1008.68 1008.53 1007.10 1006.01 1005.79 1005.68 1005.52 1005.11 1004.60 1004.40 1004.54 1004.48 1004.51 1004.34 1004.23 1003.81 1003.92 1004.01
1019.32 1019.15 1018.88 1018.60 1018.37 1018.21 1018.14 1018.05 1018.01 1017.95 1017.79 1017.52 1017.28 1017.06 1016.92 1017.06 1017.18 1017.10 1017.16 1016.97 1017.24 1017.20 1016.25 1014.66 1012.77 1011.58 1011.35 1011.04 1010.82 1011.06 1011.49 1011.48 1011.37 1010.90 1010.13 1009.14 1008.41 1008.62 1007.11 1005.93 1005.52 1005.32 1004.91 1004.48 1004.28 1004.46 1004.23 1003.93 1003.59 1003.43 1003.46 1003.30 1003.50 1003.40
1019.05 1018.85 1018.62 1018.29 1018.02 1017.89 1017.80 1017.68 1017.59 1017.53 1017.38 1017.12 1016.91 1016.55 1016.47 1016.78 1017.00 1016.68 1016.59 1017.04 1017.11 1016.88 1016.19 1015.01 1012.68 1011.60 1011.14 1010.53 1010.49 1011.02 1010.88 1011.14 1010.87 1010.28 1009.86 1009.11 1008.69 1008.45 1007.30 1006.62 1006.11 1005.18 1004.40 1004.11 1003.78 1003.76 1003.57 1003.35 1003.16 1002.90 1002.82 1002.94 1002.90 1002.67
1018.67 1018.49 1018.34 1018.10 1017.83 1017.62 1017.46 1017.30 1017.20 1017.12 1017.02 1016.88 1016.75 1016.74 1016.80 1016.70 1016.56 1016.56 1016.45 1016.64 1016.93 1017.06 1015.87 1014.94 1013.29 1011.48 1011.16 1010.74 1010.85 1011.04 1011.11 1010.57 1010.67 1010.05 1009.68 1009.56 1008.79 1008.71 1008.59 1007.94 1007.09 1006.22 1005.25 1004.24 1003.73 1003.46 1003.09 1002.77 1002.33 1002.44 1002.62 1002.55 1002.32 1002.07
1018.23 1018.09 1017.95 1017.76 1017.52 1017.27 1017.06 1016.92 1016.85 1016.78 1016.68 1016.61 1016.72 1016.71 1016.48 1016.91 1016.76 1016.64 1016.73 1016.70 1016.65 1016.23 1015.84 1014.62 1013.53 1012.02 1011.57 1011.11 1010.72 1011.03 1010.96 1010.63 1010.08 1009.60 1009.66 1009.65 1009.57 1009.45 1009.05 1008.46 1007.48 1006.49 1005.69 1004.62 1003.51 1003.06 1002.91 1002.38 1002.08 1002.08 1002.07 1001.99 1001.97 1001.90
1017.83 1017.67 1017.58 1017.45 1017.18 1016.90 1016.69 1016.57 1016.52 1016.53 1016.56 1016.57 1016.59 1016.74 1016.96 1016.89 1016.57 1016.26 1016.00 1015.91 1015.68 1015.19 1014.55 1013.52 1012.91 1012.03 1011.65 1011.34 1011.08 1011.09 1010.69 1010.62 1009.99 1009.53 1009.57 1010.15 1010.36 1009.96 1009.28 1008.49 1007.51 1006.40 1005.46 1004.59 1004.07 1003.79 1003.24 1002.82 1002.50 1002.26 1002.14 1002.31 1002.15 1001.99
1017.58 1017.31 1017.20 1017.07 1016.80 1016.53 1016.36 1016.27 1016.33 1016.45 1016.66 1016.96 1017.25 1017.28 1017.06 1016.44 1016.02 1015.70 1014.95 1014.69 1014.33 1013.30 1012.74 1012.35 1011.94 1012.14 1011.58 1011.61 1011.24 1010.90 1010.59 1010.49 1009.70 1009.65 1009.65 1010.13 1010.22 1009.92 1009.39 1008.70 1007.92 1006.80 1005.68 1005.09 1004.36 1004.08 1003.91 1003.43 1002.93 1002.79 1002.83 1002.73 1002.65 1002.43
1017.31 1016.97 1016.78 1016.65 1016.42 1016.20 1016.06 1016.05 1016.18 1016.38 1016.75 1016.88 1016.97 1016.61 1016.08 1015.88 1015.25 1014.31 1013.25 1012.71 1012.26 1011.65 1011.33 1011.43 1011.48 1011.45 1011.60 1011.56 1011.00 1010.73 1010.32 1009.64 1009.57 1009.49 1009.66 1010.04 1009.77 1009.52 1009.23 1008.59 1007.85 1007.18 1006.46 1005.70 1005.20 1004.72 1004.32 1004.05 1003.40 1003.17 1003.04 1002.86 1002.83 1002.50
1016.99 1016.57 1016.29 1016.12 1015.93 1015.83 1015.77 1015.85 1016.03 1016.42 1016.44 1016.19 1016.10 1015.85 1015.01 1014.11 1013.11 1011.75 1011.14 1010.57 1010.28 1010.41 1010.54 1010.83 1010.88 1011.09 1011.04 1010.87 1010.34 1010.20 1009.52 1009.60 1009.06 1008.74 1009.28 1009.46 1009.46 1009.23 1008.79 1008.62 1008.05 1007.35 1006.77 1006.17 1005.58 1005.13 1004.66 1004.21 1003.75 1003.40 1003.22 1003.00 1002.78 1002.42
1016.46 1016.04 1015.72 1015.30 1015.01 1015.00 1015.32 1015.52 1015.92 1016.21 1016.16 1015.72 1015.39 1014.41 1013.18 1012.05 1011.42 1010.87 1010.57 1010.35 1009.89 1009.98 1010.15 1010.48 1010.72 1010.92 1010.67 1010.58 1010.52 1010.19 1009.75 1009.11 1009.04 1009.07 1009.49 1009.35 1009.14 1008.98 1008.67 1008.40 1007.96 1007.38 1006.91 1006.46 1005.91 1005.29 1004.76 1004.35 1004.00 1003.64 1003.21 1002.85 1002.75 1002.49
1016.09 1015.56 1015.04 1014.83 1014.72 1014.75 1015.05 1015.57 1016.01 1016.08 1015.76 1015.26 1014.50 1013.18 1012.07 1011.67 1010.56 1010.27 1009.97 1009.62 1009.59 1009.84 1010.23 1010.20 1010.36 1010.54 1010.47 1010.49 1010.28 1009.71 1009.53 1009.29 1009.80 1009.85 1009.71 1009.40 1008.95 1008.72 1008.31 1007.98 1007.68 1007.31 1006.96 1006.32 1005.92 1005.45 1004.86 1004.36 1004.06 1003.56 1003.19 1002.97 1002.58 1002.39
1015.89 1015.54 1015.20 1014.69 1014.53 1014.87 1015.31 1015.52 1015.71 1015.61 1014.87 1013.96 1012.86 1012.24 1011.92 1011.23 1010.49 1009.91 1009.67 1009.42 1009.56 1009.62 1009.59 1010.00 1010.06 1010.13 1010.45 1010.27 1009.88 1009.98 1009.99 1010.23 1010.08 1009.87 1009.65 1009.27 1008.90 1008.44 1007.94 1007.51 1007.05 1006.72 1006.52 1006.06 1005.64 1005.23 1004.82 1004.52 1004.22 1003.70 1003.21 1002.90 1002.57 1002.18
1015.90 1015.53 1015.45 1015.41 1015.32 1015.46 1015.49 1015.39 1015.27 1014.88 1013.83 1012.56 1012.12 1011.15 1010.99 1010.45 1009.77 1009.48 1009.39 1009.36 1009.45 1009.39 1009.61 1009.60 1009.74 1009.92 1009.73 1009.78 1009.66 1010.28 1010.40 1010.40 1010.17 1009.92 1009.57 1009.05 1008.61 1008.18 1007.75 1007.25 1006.79 1006.37 1006.01 1005.63 1005.28 1004.95 1004.53 1004.27 1003.96 1003.49 1003.30 1003.03 1002.61 1002.11
1015.76 1015.64 1015.58 1015.51 1015.55 1015.42 1015.22 1015.19 1015.05 1013.96 1012.42 1011.71 1011.14 1010.77 1010.38 1009.58 1009.05 1008.98 1009.01 1009.18 1009.26 1009.29 1009.44 1009.60 1009.55 1009.41 1009.37 1009.71 1009.94 1010.43 1010.56 1010.44 1010.22 1009.85 1009.32 1008.76 1008.31 1007.84 1007.23 1006.74 1006.04 1005.59 1005.38 1005.29 1005.04 1004.64 1004.38 1004.16 1003.72 1003.45 1003.24 1002.98 1002.47 1002.08
1014.94 1014.71 1014.77 1014.99 1015.33 1015.03 1014.87 1014.45 1014.23 1013.39 1011.91 1010.77 1010.39 1009.86 1009.40 1008.81 1008.67 1008.67 1008.83 1009.00 1009.09 1009.29 1009.22 1009.06 1008.72 1008.74 1009.00 1009.30 1009.77 1010.00 1009.97 1010.13 1010.17 1009.71 1008.98 1008.45 1007.77 1007.21 1006.69 1006.02 1005.35 1004.97 1004.70 1004.59 1004.57 1004.44 1004.14 1003.70 1003.10 1003.01 1003.05 1002.88 1002.43 1001.95
1014.43 1014.03 1014.18 1014.58 1014.89 1014.78 1014.28 1013.53 1013.18 1012.36 1011.28 1010.47 1009.42 1009.13 1008.55 1008.46 1008.48 1008.62 1008.68 1008.82 1008.74 1008.44 1008.11 1008.31 1008.47 1008.58 1008.84 1009.08 1009.27 1009.58 1009.68 1009.72 1009.58 1009.38 1008.69 1008.04 1007.48 1007.07 1006.25 1005.34 1004.72 1004.36 1004.19 1004.08 1004.00 1003.80 1003.54 1003.09 1002.89 1002.70 1002.76 1002.58 1002.37 1002.06
1014.15 1013.94 1014.13 1014.37 1014.22 1014.06 1013.76 1012.99 1012.61 1011.77 1011.21 1009.76 1009.20 1008.51 1008.06 1007.89 1007.90 1008.07 1008.43 1008.31 1007.76 1007.13 1007.41 1007.74 1008.05 1008.28 1008.64 1008.90 1009.00 1009.18 1009.22 1009.29 1009.08 1008.66 1008.12 1007.89 1007.49 1006.85 1006.06 1005.00 1004.16 1003.74 1003.62 1003.59 1003.60 1003.37 1003.26 1002.95 1002.79 1002.67 1002.70 1002.57 1002.58 1002.40
1014.08 1013.93 1013.86 1013.80 1013.68 1013.33 1012.61 1012.15 1011.99 1011.04 1010.25 1009.01 1008.43 1007.85 1007.41 1007.32 1007.56 1007.97 1007.67 1007.36 1006.76 1006.66 1006.92 1007.13 1007.48 1007.93 1008.24 1008.61 1008.83 1008.85 1008.89 1008.85 1008.48 1007.99 1007.62 1007.43 1006.95 1006.59 1006.00 1004.67 1003.94 1003.50 1003.48 1003.50 1003.48 1003.46 1003.28 1003.28 1003.06 1002.85 1002.73 1002.68 1002.64 1002.94
1013.73 1013.26 1013.01 1012.89 1012.74 1012.05 1011.43 1011.09 1010.78 1010.04 1009.24 1008.48 1007.71 1006.87 1006.70 1007.10 1007.55 1007.42 1006.86 1006.39 1005.95 1006.26 1006.58 1006.75 1007.18 1007.83 1008.33 1008.48 1008.40 1008.13 1008.30 1008.35 1008.01 1007.40 1007.30 1007.11 1006.69 1006.78 1005.99 1004.78 1004.24 1003.87 1003.62 1003.67 1003.61 1003.53 1003.46 1003.39 1003.39 1003.27 1003.21 1003.23 1003.34 1003.45
1013.17 1012.98 1012.73 1011.92 1011.60 1011.27 1010.43 1009.77 1009.33 1008.84 1007.93 1007.11 1006.77 1006.18 1006.26 1006.71 1006.49 1006.45 1006.01 1005.44 1005.48 1005.72 1006.02 1006.53 1006.92 1007.20 1007.33 1007.42 1007.41 1007.59 1007.69 1007.82 1007.63 1007.20 1007.00 1007.08 1006.90 1006.70 1006.06 1005.14 1004.78 1004.59 1004.30 1004.05 1004.02 1003.96 1003.92 1003.77 1003.85 1003.85 1003.82 1003.97 1004.06 1004.24
1012.21 1011.64 1011.47 1010.53 1010.04 1009.83 1009.09 1008.30 1008.03 1007.38 1006.79 1006.07 1005.60 1005.62 1005.74 1005.78 1005.63 1005.19 1004.90 1004.46 1004.70 1004.96 1005.35 1005.79 1006.15 1006.70 1006.99 1007.14 1007.19 1007.04 1007.06 1007.44 1007.28 1006.77 1006.64 1006.79 1006.71 1006.54 1006.40 1006.03 1005.44 1005.37 1005.18 1004.98 1004.84 1004.71 1004.56 1004.42 1004.47 1004.51 1004.72 1004.97 1005.15 1005.31
1011.27 1010.50 1010.12 1009.85 1009.57 1009.13 1008.43 1007.84 1007.27 1006.69 1005.73 1005.19 1004.90 1005.16 1005.26 1004.97 1004.40 1004.06 1003.88 1004.01 1004.17 1004.31 1004.57 1005.00 1005.47 1005.84 1005.96 1006.27 1006.70 1006.98 1006.96 1006.95 1006.88 1006.67 1006.65 1006.68 1006.62 1006.40 1006.17 1006.11 1005.98 1005.92 1005.78 1005.44 1005.45 1005.38 1005.21 1005.00 1005.20 1005.44 1005.61 1005.77 1005.99 1006.25
1010.31 1009.82 1009.34 1008.99 1008.93 1008.60 1008.02 1007.30 1006.43 1005.57 1005.04 1004.90 1004.93 1004.77 1004.41 1004.05 1003.67 1003.49 1003.49 1003.69 1003.95 1004.17 1004.43 1004.96 1005.28 1005.48 1005.70 1005.94 1006.35 1006.57 1006.49 1006.54 1006.38 1006.23 1006.17 1006.26 1006.45 1006.28 1006.23 1006.30 1006.34 1006.35 1006.21 1006.18 1006.06 1005.82 1005.68 1005.97 1006.04 1006.22 1006.32 1006.51 1006.81 1007.11
1009.59 1009.12 1008.98 1008.47 1008.19 1007.70 1006.99 1006.30 1005.37 1004.64 1004.58 1004.67 1004.52 1004.24 1003.92 1003.68 1003.48 1003.42 1003.64 1003.79 1003.99 1004.07 1004.39 1004.90 1005.35 1005.66 1005.73 1006.05 1006.23 1006.32 1006.38 1006.19 1005.81 1005.78 1005.73 1005.80 1005.95 1006.23 1006.40 1006.37 1006.40 1006.42 1006.45 1006.62 1006.84 1006.38 1006.51 1006.90 1006.92 1006.94 1006.98 1007.23 1007.36 1007.60
1008.52 1008.45 1008.17 1007.75 1007.22 1006.37 1005.38 1004.99 1004.53 1004.35 1004.51 1004.53 1004.45 1004.26 1004.00 1003.62 1003.47 1003.63 1003.73 1003.88 1004.01 1003.80 1003.83 1004.00 1004.51 1005.08 1005.22 1005.34 1005.45 1005.72 1005.81 1005.87 1005.73 1005.61 1005.74 1005.92 1006.23 1006.73 1006.77 1006.74 1006.73 1006.76 1006.83 1006.85 1007.19 1007.42 1007.53 1007.42 1007.58 1007.42 1007.48 1007.56 1007.58 1007.90
1007.84 1007.88 1007.50 1006.87 1005.95 1004.85 1004.35 1004.24 1004.23 1004.26 1004.29 1004.31 1004.31 1004.22 1003.80 1003.51 1003.16 1003.04 1003.19 1003.34 1003.65 1003.85 1003.91 1004.08 1004.25 1004.58 1004.68 1004.80 1004.87 1004.93 1005.03 1005.52 1005.70 1005.96 1006.30 1006.29 1006.43 1006.70 1006.97 1007.24 1007.36 1007.39 1007.31 1007.18 1007.33 1007.55 1007.73 1007.84 1007.92 1008.01 1008.17 1008.36 1008.70 1008.94
1007.09 1006.83 1006.55 1005.85 1004.90 1004.03 1003.92 1003.84 1003.75 1003.88 1003.89 1004.00 1003.79 1003.85 1003.67 1003.51 1003.12 1002.56 1002.64 1003.08 1003.34 1003.39 1003.42 1003.67 1003.75 1003.78 1004.11 1004.25 1004.46 1004.55 1004.71 1004.80 1005.23 1005.61 1006.08 1006.30 1006.49 1006.88 1007.20 1007.39 1007.53 1007.59 1007.67 1007.77 1007.92 1008.05 1008.16 1008.27 1008.50 1008.74 1009.03 1009.29 1009.55 1009.83
1006.16 1005.98 1005.64 1005.30 1004.43 1003.81 1003.69 1003.57 1003.57 1003.57 1003.60 1003.47 1003.27 1003.27 1003.13 1002.94 1002.58 1002.12 1002.40 1002.47 1002.46 1002.39 1002.75 1003.02 1003.34 1003.53 1003.65 1003.92 1004.02 1004.18 1004.82 1004.80 1005.13 1005.50 1005.93 1006.17 1006.42 1006.74 1007.12 1007.41 1007.64 1007.80 1007.92 1008.11 1008.32 1008.53 1008.73 1008.95 1009.20 1009.47 1009.74 1010.01 1010.27 1010.58
Wind_Speed
8 7 7 7 7 8 10 10 9 10 12 13 13 14 12 13 14 5 2 5 3 2 5 6 4 6 3 2 2 3 4 2 2 4 4 4 5 4 4 5 6 10 7 6 4 7 13 9 8 8 3 0 5 7
9 8 7 7 6 8 10 10 9 10 11 11 12 12 10 11 11 4 1 2 3 4 4 3 6 8 5 4 3 3 3 2 2 3 2 2 4 2 4 5 2 6 9 7 9 6 2 8 1 3 4 6 10 10
10 9 8 7 7 6 7 8 10 9 9 10 11 11 9 9 9 6 3 3 1 2 5 4 3 3 4 12 11 4 3 4 3 2 2 2 6 2 4 5 3 5 4 4 2 10 11 7 6 5 5 7 9 8
10 10 9 8 8 8 7 6 9 8 9 10 10 11 11 9 7 5 2 1 1 0 3 1 2 4 1 6 11 17 2 3 1 1 4 4 4 4 4 4 5 2 5 4 6 10 9 10 7 3 5 7 7 6
10 9 9 9 8 8 8 6 7 8 10 10 9 9 9 8 7 3 1 2 2 3 3 6 11 0 4 7 9 11 12 8 4 4 5 6 3 4 5 4 9 5 9 9 12 6 5 9 7 4 8 11 7 8
9 9 9 8 9 9 8 8 8 9 10 11 10 9 8 5 3 2 2 3 4 2 3 4 4 4 1 5 8 9 7 6 4 4 4 5 5 5 6 10 9 11 13 13 13 13 10 11 12 12 13 10 8 9
9 10 9 9 8 8 9 9 8 9 11 11 11 10 11 2 2 1 3 2 6 2 2 5 4 1 3 3 2 3 5 3 4 3 4 5 6 5 8 14 14 12 14 15 15 9 10 13 12 11 13 10 7 10
10 10 10 10 9 8 9 9 8 9 10 10 14 10 1 4 3 2 1 9 3 2 1 3 4 4 2 2 2 1 2 3 4 3 3 4 1 3 6 9 14 17 19 17 15 12 16 14 15 15 11 8 11 12
9 10 10 10 9 9 9 9 8 9 9 8 3 5 2 1 1 2 3 8 3 2 3 2 3 2 2 1 2 1 1 3 2 3 2 2 1 3 10 15 17 14 10 12 11 11 12 14 15 11 12 12 14 10
9 10 10 9 10 10 9 8 7 8 8 1 1 2 2 2 7 2 4 2 2 2 3 4 1 4 2 2 1 2 1 2 3 1 1 2 2 3 12 17 11 12 11 10 7 12 10 8 7 7 9 10 11 7
10 10 9 10 10 10 8 7 5 6 2 0 1 1 2 6 1 1 2 3 2 3 4 5 5 4 2 2 2 1 2 1 3 2 2 2 2 7 14 15 13 11 6 6 5 1 4 5 6 5 2 5 7 7
12 10 9 10 10 9 8 6 4 1 1 2 2 0 2 1 1 3 2 1 5 4 5 4 2 5 2 1 3 3 2 0 5 2 1 1 4 8 11 13 15 16 16 14 13 12 11 9 8 7 7 7 6 6
14 12 10 10 10 9 7 5 5 9 6 2 1 1 2 2 0 5 6 4 4 4 4 4 3 2 3 3 4 1 4 4 2 3 3 3 6 7 7 9 12 13 15 13 12 11 9 8 10 9 5 7 8 7
14 14 12 12 10 9 7 7 8 6 1 2 2 2 5 5 6 5 3 2 1 2 3 2 2 2 1 3 1 4 1 3 4 3 4 2 8 12 10 10 7 11 14 16 13 12 11 10 9 8 7 8 9 9
15 15 14 15 11 11 10 9 10 1 2 3 3 5 8 5 4 4 4 4 2 1 2 2 2 1 1 3 0 2 3 4 3 2 3 7 13 13 12 10 11 9 10 12 13 12 12 11 8 8 8 9 9 9
15 15 2 9 8 2 10 11 2 1 2 3 5 4 5 3 4 3 3 5 2 3 1 1 2 1 2 2 3 4 4 2 2 4 7 10 13 13 13 12 12 10 11 12 11 11 11 10 9 10 10 8 9 9
12 2 11 7 2 12 8 2 2 3 4 4 5 5 6 6 6 4 2 2 2 3 1 2 2 2 1 3 3 1 2 5 9 8 7 12 12 12 11 11 12 12 11 12 12 11 10 9 8 8 9 9 9 9
3 3 6 4 6 1 1 0 2 3 6 6 4 2 4 5 4 4 3 3 4 3 3 2 2 3 3 2 1 3 4 6 4 5 6 6 8 9 7 9 9 11 11 11 11 10 9 8 7 6 7 7 8 6
5 7 7 5 4 2 2 3 2 4 6 3 4 5 4 5 5 5 3 3 2 1 4 3 3 3 2 2 1 1 2 2 3 5 4 6 7 9 11 11 12 11 9 7 7 6 6 9 7 5 4 5 5 4
17 15 12 10 8 2 2 3 3 3 4 2 3 4 4 3 1 1 4 4 4 2 3 4 4 3 3 3 4 4 4 2 4 7 7 7 9 12 12 12 10 10 8 5 4 6 5 5 4 3 3 4 4 3
6 1 6 6 3 3 3 2 3 4 4 4 2 3 3 2 2 4 3 3 3 3 4 3 3 4 5 5 4 4 6 5 6 6 10 10 9 8 10 10 9 6 5 4 4 4 4 4 4 2 2 3 1 0
2 5 2 3 3 3 3 3 3 3 3 3 3 3 3 3 3 4 5 3 4 3 4 4 5 6 7 7 6 6 6 7 10 8 9 9 7 7 9 12 9 4 3 2 3 3 4 3 2 1 1 2 1 2
4 3 2 3 4 4 5 4 4 3 3 3 2 3 3 3 1 3 3 3 3 3 5 4 6 4 5 4 4 6 5 7 8 8 8 6 6 5 8 11 8 3 2 2 1 1 1 2 2 2 3 3 5 4
3 3 3 4 6 4 3 5 4 3 3 3 3 4 3 2 3 3 3 3 3 4 6 8 7 5 2 3 4 7 5 3 7 7 3 5 5 5 8 9 6 4 4 3 3 4 3 4 4 5 6 6 6 6
2 4 3 6 4 4 4 4 4 4 5 6 4 3 4 4 4 4 3 3 3 6 7 7 6 7 7 6 5 6 4 3 4 7 4 5 4 3 7 9 8 7 5 5 5 6 6 5 6 8 10 9 9 12
4 6 6 4 4 5 5 3 7 7 4 3 5 2 3 3 4 4 3 3 4 6 9 10 9 7 6 6 5 5 3 1 4 4 3 5 3 3 7 8 8 8 7 6 7 8 7 6 8 12 12 12 11 13
4 5 5 3 2 1 3 2 4 4 4 3 2 4 4 3 4 2 2 3 3 4 8 9 9 8 7 5 4 4 4 3 4 4 4 2 1 1 2 1 3 1 3 5 5 7 7 7 10 11 12 10 9 8
4 3 5 4 4 3 2 3 4 4 3 2 2 3 3 4 1 1 2 1 3 4 7 8 7 7 6 4 1 2 3 2 3 2 3 3 2 4 4 3 3 5 4 6 8 7 10 11 10 9 10 7 6 6
4 3 3 3 3 4 5 5 4 2 2 3 2 2 2 1 1 1 1 2 4 5 6 7 6 5 5 3 3 3 2 2 1 4 6 6 5 6 5 5 5 5 5 8 11 7 8 6 7 7 8 8 7 7
4 5 4 4 5 6 5 7 3 1 2 1 2 2 2 3 2 1 2 3 4 6 6 6 6 7 6 6 5 5 4 4 3 2 5 5 5 3 4 5 5 5 5 7 9 9 8 8 7 6 7 7 8 10
1 4 4 4 5 7 9 7 3 1 2 2 3 3 3 3 3 3 4 4 5 5 6 5 6 6 7 7 6 5 5 5 5 5 3 5 5 5 5 4 4 3 4 6 7 7 8 8 8 9 10 12 12 11
4 7 4 4 4 3 3 4 4 5 3 2 3 3 2 2 3 2 4 6 7 7 6 6 6 8 8 6 6 4 1 5 7 6 10 6 7 7 6 5 4 5 7 8 8 8 11 11 9 11 12 13 13 13
2 4 6 4 3 2 1 2 3 2 3 3 3 2 2 2 4 1 2 5 6 7 8 9 6 3 7 9 8 6 5 3 3 4 9 10 11 11 7 6 6 7 8 8 9 10 11 13 11 12 12 11 11 10
Wind_Direction
284 293 304 313 321 331 335 340 340 345 347 352 1 6 9 10 10 9 36 13 337 260 271 214 231 216 164 205 253 39 284 167 244 222 230 214 233 209 247 245 204 199 196 202 198 239 257 178 141 227 54 91 284 282
279 283 290 299 315 331 333 335 336 341 343 343 350 0 3 6 3 24 28 11 343 250 305 308 274 269 255 276 251 195 324 277 278 264 236 289 239 236 262 249 150 238 231 231 214 221 12 206 23 94 29 296 282 280
288 276 276 283 286 293 319 326 331 330 338 336 339 347 357 350 353 357 326 345 296 304 274 271 239 173 204 224 225 212 213 237 214 304 315 302 263 199 241 232 253 218 185 244 192 234 234 234 267 277 273 275 288 271
299 286 275 272 275 278 287 307 321 322 321 322 330 342 348 341 332 329 287 131 80 136 298 349 333 271 151 174 192 215 316 117 73 246 262 258 252 206 245 287 250 299 158 242 254 270 271 254 239 271 316 310 281 268
311 299 286 279 277 277 278 287 304 304 301 306 316 327 338 334 329 307 244 233 215 328 308 295 306 223 212 193 206 217 233 241 240 229 226 234 238 236 232 267 252 215 253 253 266 289 313 290 317 258 302 302 279 265
313 309 302 289 280 277 272 268 278 293 302 305 306 311 321 323 336 246 209 167 201 216 308 305 349 265 297 209 242 232 216 199 210 209 223 230 240 233 249 255 254 241 225 234 255 272 269 275 279 272 279 267 260 250
323 312 305 300 293 286 277 268 276 289 297 298 300 298 305 249 174 273 16 37 164 212 293 299 293 245 297 285 189 160 158 177 216 225 232 254 245 200 256 262 262 251 246 245 245 261 269 261 266 277 254 232 257 249
317 312 309 308 307 297 284 275 278 291 298 308 323 326 139 143 230 251 156 187 137 258 257 291 278 278 1 272 262 46 190 199 194 274 241 250 251 239 259 320 311 269 256 252 256 249 255 275 277 265 236 242 262 247
308 309 307 306 304 299 288 278 281 293 302 322 348 117 132 101 116 50 17 144 200 289 304 253 281 329 356 260 266 184 317 246 122 252 251 268 290 246 322 318 304 304 298 296 297 278 269 260 264 254 239 249 243 246
314 306 305 307 302 298 293 278 283 299 321 124 213 243 141 50 332 299 190 192 215 200 225 255 247 256 287 360 298 292 154 299 279 222 258 285 308 302 337 313 293 306 296 292 301 321 320 314 295 271 232 234 243 236
321 307 305 307 303 298 289 276 279 318 134 105 29 57 9 317 215 196 228 227 150 240 213 236 232 282 145 270 286 246 325 279 268 110 291 48 332 290 318 328 338 349 303 281 282 256 40 22 24 352 96 283 263 252
324 314 301 301 304 300 284 263 242 310 58 80 71 113 254 179 146 252 220 189 218 250 188 216 214 212 257 217 253 195 273 236 253 339 115 270 250 274 316 332 340 359 11 17 10 358 4 6 13 27 26 24 353 307
319 315 303 294 294 297 277 245 195 114 132 144 161 185 156 147 159 210 200 199 230 201 200 196 217 212 184 221 241 247 239 231 320 227 149 217 266 293 307 323 334 345 354 2 358 358 349 336 351 4 17 13 357 332
316 312 303 291 285 280 263 222 163 141 167 198 184 284 212 199 236 210 225 232 237 206 190 197 220 224 185 226 208 252 266 269 252 240 165 224 315 318 316 319 319 332 337 335 342 341 337 343 347 344 352 355 341 330
317 310 303 290 275 254 217 190 151 150 184 214 187 230 224 237 263 257 257 270 236 231 180 168 123 263 208 274 189 328 264 248 247 354 326 319 313 313 312 313 309 310 315 313 320 329 329 333 338 326 334 343 334 322
322 312 349 307 268 214 156 117 112 154 220 221 231 251 231 262 254 223 229 250 183 148 122 122 106 227 267 272 241 232 276 325 21 309 307 299 302 306 312 311 303 296 293 292 296 305 312 325 331 321 317 314 327 323
320 270 348 11 125 126 122 118 158 221 251 227 234 231 262 284 263 267 235 247 148 183 237 153 186 238 125 238 245 238 315 314 306 299 289 291 297 293 298 293 295 299 291 288 288 292 300 308 312 309 309 326 324 316
246 354 48 57 19 109 73 133 194 245 249 238 240 239 213 241 256 233 226 181 170 169 176 219 128 209 230 247 249 5 317 323 306 302 300 299 303 315 307 296 293 291 289 284 284 289 291 294 304 308 312 316 314 314
283 288 280 239 250 288 220 197 206 255 246 248 245 239 245 251 240 250 229 156 159 118 138 178 212 213 223 199 269 161 243 262 288 307 285 280 281 291 315 309 309 305 297 286 291 292 294 283 275 278 297 306 294 305
291 271 248 224 198 230 244 221 198 261 269 266 234 233 237 247 283 187 153 155 148 157 186 218 219 185 195 191 184 212 230 293 308 306 300 308 314 320 316 309 294 297 291 287 260 256 267 279 256 248 290 277 290 303
294 156 137 154 180 240 267 239 216 237 271 259 278 233 255 190 196 181 164 160 182 220 222 204 193 187 193 193 213 221 257 263 273 275 289 300 311 309 301 317 307 283 276 272 273 267 251 282 274 302 287 283 277 230
258 157 125 198 220 206 260 216 238 289 258 268 274 230 245 217 187 187 138 188 226 222 191 174 184 187 191 210 225 235 266 287 286 283 277 289 289 302 311 323 316 277 265 262 262 298 298 295 328 339 225 202 135 115
302 193 199 186 223 202 255 159 221 218 250 250 255 239 219 205 135 158 209 224 253 200 173 185 180 162 188 214 254 266 268 284 291 300 315 315 288 284 300 330 338 345 83 72 322 293 6 5 61 101 115 123 116 106
172 224 217 208 202 249 201 193 220 237 246 242 230 253 179 139 160 213 248 231 214 161 179 178 168 155 163 237 253 265 280 275 298 301 344 346 351 349 310 331 344 24 62 64 55 56 45 54 55 73 82 80 85 88
171 219 202 231 209 221 240 190 205 225 240 206 221 228 174 173 189 205 247 257 194 189 190 170 183 200 213 226 253 269 277 273 304 315 13 26 41 69 14 8 27 31 23 61 58 67 66 67 64 71 83 87 89 92
210 199 200 215 191 223 199 211 200 213 240 246 218 102 167 171 203 231 226 221 200 186 182 182 189 186 223 231 254 272 311 241 291 303 33 34 23 119 75 55 25 28 17 31 43 46 48 71 93 86 76 61 63 93
238 232 206 219 273 292 263 273 261 252 236 229 154 168 179 215 221 235 254 209 202 194 186 181 182 193 211 215 219 250 278 275 261 306 326 30 30 306 216 201 76 59 337 1 22 23 24 68 87 84 84 74 62 61
250 239 230 172 196 206 274 252 223 238 231 183 153 185 222 210 236 200 230 109 180 150 168 181 196 205 211 221 239 306 311 284 276 300 228 141 108 48 31 35 354 332 297 341 337 354 71 117 120 94 67 68 99 95
232 222 208 243 220 243 220 227 249 249 173 168 186 234 244 231 288 233 189 174 158 157 157 171 192 197 223 228 247 256 217 245 278 67 46 38 32 32 19 31 44 52 57 70 48 66 97 77 82 69 69 82 94 106
230 188 217 225 217 224 224 201 232 242 204 238 309 296 252 242 242 156 162 173 180 190 186 176 158 180 199 204 203 203 214 224 228 117 108 73 64 81 50 40 39 44 57 77 85 86 90 100 93 86 89 88 94 101
206 188 230 235 251 242 235 236 250 264 218 212 200 246 266 305 289 203 203 192 167 162 171 165 172 182 189 189 195 200 191 187 189 157 124 129 122 108 105 95 87 71 60 59 67 88 99 91 89 91 92 92 90 88
201 206 209 236 253 242 199 193 197 211 215 221 235 210 221 210 251 240 175 156 164 182 181 176 186 190 196 187 198 204 298 150 170 174 163 166 142 133 130 121 112 100 94 90 90 88 84 83 88 94 100 101 103 103
216 228 225 266 257 248 118 188 184 216 201 218 229 220 237 224 242 258 148 205 194 192 184 189 201 198 189 192 194 189 185 173 176 184 167 161 156 145 141 137 132 130 119 109 106 104 99 99 99 102 104 107 108 110